sat.trackr.live / text

‹ back to catalog

STARLINK-37968

NORAD 69686 · 2026-145K

PAYLOAD ACTIVE UNKNOWN

§ Identity

Operator
Country
US
Launch date
2026-06-25
Launch site
AFWTR
Launch vehicle
Mass (kg)
RCS (m²)

Purposes: comms

External: N2YO · Heavens-Above · Gunter

§ Orbital elements

Epoch: 2026-09-19T00:08:15.884160Z

Period
93.91 min
Inclination
97.2825°
Eccentricity
0.0002625
Mean motion
15.33443933 rev/d
Perigee alt
463.7 km
Apogee alt
467.3 km
Semi-major
6,843.7 km
B*
3.7909e-4
RAAN
108.6840°
Arg perigee
83.1479°
Mean anomaly
277.0062°
Rev number
1,331

§ Raw data

STARLINK-379681 69686U 26145K   26262.00573940  .00012184  00000+0  37909-3 0  99952 69686  97.2825 108.6840 0002625  83.1479 277.0062 15.33443933 13314

JSON: /api/v1/satellites/69686 · /tle

For live sub-satellite position, see the globe view (requires WebGL).

§ Visibility from observer

Set your observer location to see the next 7 days of passes ≥ 10°. The values pass through the URL so the page stays shareable.

No JS? Fill the form by hand. The geolocation button needs JavaScript.